TimeMDT,TemperatureF,Dew PointF,Humidity,Sea Level PressureIn,VisibilityMPH,Wind Direction,Wind SpeedMPH,Gust SpeedMPH,PrecipitationIn,Events,Conditions,WindDirDegrees,DateUTC
12:56 AM,55.9,53.1,90,29.95,10.0,North,-9999.0,-,N/A,,Mostly Cloudy,0,2013-08-07 06:56:00
1:56 AM,54.0,53.1,97,29.96,10.0,North,-9999.0,-,N/A,,Partly Cloudy,0,2013-08-07 07:56:00
2:11 AM,53.6,53.6,100,29.99,10.0,North,-9999.0,-,N/A,,Mostly Cloudy,0,2013-08-07 08:11:00
2:41 AM,55.4,53.6,94,29.98,8.0,North,-9999.0,-,N/A,,Scattered Clouds,0,2013-08-07 08:41:00
2:56 AM,53.1,52.0,96,29.96,6.0,North,-9999.0,-,N/A,,Clear,0,2013-08-07 08:56:00
3:34 AM,53.6,53.6,100,29.99,8.0,North,-9999.0,-,N/A,,Mostly Cloudy,0,2013-08-07 09:34:00
3:41 AM,55.4,53.6,94,29.99,8.0,North,-9999.0,-,N/A,,Mostly Cloudy,0,2013-08-07 09:41:00
3:56 AM,55.9,54.0,93,29.97,7.0,North,-9999.0,-,N/A,,Overcast,0,2013-08-07 09:56:00
4:56 AM,57.9,55.9,93,29.97,6.0,North,-9999.0,-,N/A,,Overcast,0,2013-08-07 10:56:00
5:24 AM,57.2,55.4,94,30.01,9.0,North,-9999.0,-,N/A,,Overcast,0,2013-08-07 11:24:00
5:56 AM,57.9,55.0,90,29.99,9.0,North,-9999.0,-,N/A,,Overcast,0,2013-08-07 11:56:00
6:04 AM,57.2,55.4,94,30.01,8.0,North,-9999.0,-,N/A,,Mostly Cloudy,0,2013-08-07 12:04:00
6:16 AM,57.2,55.4,94,30.02,7.0,North,-9999.0,-,N/A,,Mostly Cloudy,0,2013-08-07 12:16:00
6:25 AM,57.2,55.4,94,30.02,6.0,North,-9999.0,-,N/A,,Mostly Cloudy,0,2013-08-07 12:25:00
6:56 AM,57.0,55.0,93,30.00,6.0,North,-9999.0,-,N/A,,Overcast,0,2013-08-07 12:56:00
7:56 AM,59.0,55.9,90,30.01,9.0,NNW,8.1,-,N/A,,Overcast,340,2013-08-07 13:56:00
8:29 AM,59.0,55.4,88,30.03,9.0,NNW,10.4,-,N/A,,Overcast,330,2013-08-07 14:29:00
8:56 AM,60.1,55.9,86,30.03,10.0,NNW,8.1,-,N/A,,Overcast,340,2013-08-07 14:56:00
9:56 AM,64.0,55.9,75,30.04,10.0,North,9.2,-,N/A,,Mostly Cloudy,350,2013-08-07 15:56:00
10:08 AM,64.4,55.4,73,30.05,10.0,NNW,8.1,-,N/A,,Scattered Clouds,340,2013-08-07 16:08:00
10:56 AM,64.9,55.0,70,30.04,10.0,NNW,9.2,-,N/A,,Mostly Cloudy,330,2013-08-07 16:56:00
11:33 AM,66.2,55.4,68,30.05,10.0,NW,8.1,-,N/A,,Overcast,320,2013-08-07 17:33:00
11:56 AM,66.0,54.0,65,30.03,10.0,NW,5.8,-,N/A,,Overcast,320,2013-08-07 17:56:00
12:56 PM,71.1,55.0,57,30.01,10.0,North,8.1,-,N/A,,Mostly Cloudy,10,2013-08-07 18:56:00
1:56 PM,72.0,54.0,53,30.01,10.0,ENE,6.9,-,N/A,,Mostly Cloudy,60,2013-08-07 19:56:00
2:56 PM,73.0,52.0,48,29.99,10.0,North,6.9,-,N/A,,Scattered Clouds,360,2013-08-07 20:56:00
3:56 PM,72.0,52.0,49,29.99,10.0,Variable,4.6,-,N/A,,Scattered Clouds,0,2013-08-07 21:56:00
4:56 PM,70.0,52.0,53,29.99,10.0,NE,8.1,-,N/A,,Mostly Cloudy,40,2013-08-07 22:56:00
5:56 PM,69.1,52.0,54,29.99,10.0,NE,9.2,-,N/A,,Scattered Clouds,40,2013-08-07 23:56:00
6:56 PM,66.0,51.1,59,30.00,10.0,NNE,10.4,-,N/A,,Mostly Cloudy,30,2013-08-08 00:56:00
7:56 PM,62.1,51.1,67,30.03,10.0,NE,10.4,-,N/A,,Mostly Cloudy,40,2013-08-08 01:56:00
8:56 PM,60.1,50.0,69,30.04,10.0,NE,10.4,-,N/A,,Overcast,40,2013-08-08 02:56:00
9:56 PM,59.0,50.0,72,30.04,10.0,NE,6.9,-,N/A,,Overcast,50,2013-08-08 03:56:00
10:56 PM,55.0,48.9,80,30.05,10.0,ENE,5.8,-,N/A,,Scattered Clouds,60,2013-08-08 04:56:00
11:56 PM,54.0,48.9,83,30.06,10.0,ENE,6.9,-,N/A,,Mostly Cloudy,60,2013-08-08 05:56:00